Tracking 31027 objects as of 19-Jul-2025
HD Live streaming from Space Station
objects crossing your sky now

GAOFEN 1-03

Track GAOFEN 1-03 now!
10-day predictions


NORAD ID: 43260
Int'l Code: 2018-031B
Perigee: 642.7 km
Apogee: 651.8 km
Inclination: 97.8 °
Period: 97.5 minutes
Semi major axis: 7018 km
RCS: Unknown
Launch date: March 31, 2018
Source: People's Republic of China (PRC)
Launch site: Taiyaun Space Center, China (TSC)
Your satellite tracking list
STARLINK-3957
Track 1 satellite(s)




NASA's NSSDC Master Catalog

Two Line Element Set (TLE):
1 43260U 18031B   25199.91618018  .00000618  00000-0  95548-4 0  9998
2 43260  97.7699 259.6524 0006505  39.7326 320.4360 14.76592607393519
Source of the keplerian elements: AFSPC